Weather in Kehychivka

Ukraine / Kharkiv Region     49˚17′04″N   35˚45′34″E
temp.,
°C
wind,
m/s
gust,
m/s
humid.,
%
clouds,
%
prec.,
mm/h
press.,
hPa
HPBL,
m
2 december, wed
wed223:00e71190100 0.2 1028556
02:00−1˚e71178100 0.3 1028539
05:00−1˚e61077100 0.0 1029522
08:00−2˚e6108297 0.0 1029509
11:00+1˚ese697897 0.0 1029651
14:00+1˚e687799 0.0 1028559
17:00e61079100 0.0 1029543
20:00e61083100 0.0 1029495
3 december, thu
thu323:00−1˚ese5990100 0.2 1028481
02:00e6989100 0.2 1028368
05:00e5897100 1.2 1028269
08:00e5897100 3.0 1028276
11:00+1˚ese4798100 1.6 1028228
14:00+2˚ese4698100 2.3 1027190
17:00+1˚ese4797100 0.6 1027224
20:00+2˚ese4798100 1.1 1027221
4 december, fri
fri423:00+2˚se3599100 0.8 1028227
02:00+2˚ese3698100 1.0 1027245
05:00+2˚ese5797100 0.1 1027308
08:00e5894100 0.1 1028360
11:00+1˚ese5890100 0.0 1028437
14:00+1˚ese5889100 0.0 1027450
17:00+1˚e61090100 0.0 1027470
20:00+1˚ese6987100 0.0 1028564
5 december, sat
sat523:00+1˚ese5986100 0.0 1028620
02:00+1˚ese5887100 0.0 1029545
05:00ese598799 0.0 1029418
08:00ese6984100 0.0 1030401
11:00+1˚ese6979100 0.0 1031440
14:00+1˚e697964 0.0 1030445
17:00−2˚e6118616 0.0 1031378
20:00−2˚e6117817 0.0 1032370
6 december, sun
sun623:00−3˚ese610704 0.0 1033347
02:00−4˚e610692 0.0 1033338
05:00−4˚e610680 0.0 1033350
08:00−5˚e711670 0.0 1034354
11:00−2˚ese711520 0.0 1033423
14:00−2˚e711530 0.0 1033446
17:00−4˚e713670 0.0 1033369
20:00−5˚e713630 0.0 1034380